owner,sensor,date,latitude,longitude,vertical_datum,wind_speed,wind_to_direction,wind_speed_of_gust,qcFlag 
TCOON,ioos:station:TCOON:005:1,2015-05-01T00:00:00Z,27.6346,-97.2370,0.0,3.8,151.0,5.3,'11111222,11111222,11111222' 
TCOON,ioos:station:TCOON:005:1,2015-05-01T00:06:00Z,27.6346,-97.2370,0.0,4.0,144.0,5.8,'11111222,11111222,11111222' 
TCOON,ioos:station:TCOON:005:1,2015-05-01T00:12:00Z,27.6346,-97.2370,0.0,3.7,155.0,5.1,'11111222,11111222,11111222' 
TCOON,ioos:station:TCOON:005:1,2015-05-01T00:18:00Z,27.6346,-97.2370,0.0,3.7,150.0,4.7,'1111122,1111122,1111122' 
TCOON,ioos:station:TCOON:005:1,2015-05-01T00:24:00Z,27.6346,-97.2370,0.0,3.7,150.0,4.7,'11111222,11111222,11111222' 
TCOON,ioos:station:TCOON:005:1,2015-05-01T00:30:00Z,27.6346,-97.2370,0.0,3.6,153.0,4.8,'11111222,11111222,11111222' 
TCOON,ioos:station:TCOON:005:1,2015-05-01T00:36:00Z,27.6346,-97.2370,0.0,3.2,151.0,4.8,'11111222,11111222,11111222' 
TCOON,ioos:station:TCOON:005:1,2015-05-01T00:42:00Z,27.6346,-97.2370,0.0,2.9,153.0,4.0,'11111222,11111222,11111222' 
TCOON,ioos:station:TCOON:005:1,2015-05-01T00:48:00Z,27.6346,-97.2370,0.0,3.3,158.0,4.3,'11111222,11111222,11111222' 
TCOON,ioos:station:TCOON:005:1,2015-05-01T00:54:00Z,27.6346,-97.2370,0.0,2.8,153.0,4.2,'11111222,11111222,11111222' 
TCOON,ioos:station:TCOON:005:1,2015-05-01T01:00:00Z,27.6346,-97.2370,0.0,2.7,152.0,3.9,'11111222,11111222,11111222' 
TCOON,ioos:station:TCOON:005:1,2015-05-01T01:06:00Z,27.6346,-97.2370,0.0,3.0,148.0,4.1,'11111222,11111222,11111222' 
TCOON,ioos:station:TCOON:005:1,2015-05-01T01:12:00Z,27.6346,-97.2370,0.0,2.5,148.0,3.7,'11111222,11111222,11111222' 
TCOON,ioos:station:TCOON:005:1,2015-05-01T01:18:00Z,27.6346,-97.2370,0.0,2.5,148.0,3.7,'1111122,1111122,1111122' 
TCOON,ioos:station:TCOON:005:1,2015-05-01T01:24:00Z,27.6346,-97.2370,0.0,3.0,143.0,4.0,'11111222,11111222,11111222' 
TCOON,ioos:station:TCOON:005:1,2015-05-01T01:30:00Z,27.6346,-97.2370,0.0,2.8,145.0,3.9,'11111222,11111222,11111222' 
TCOON,ioos:station:TCOON:005:1,2015-05-01T01:36:00Z,27.6346,-97.2370,0.0,3.1,143.0,4.1,'11111222,11111222,11111222' 
TCOON,ioos:station:TCOON:005:1,2015-05-01T01:42:00Z,27.6346,-97.2370,0.0,3.3,144.0,4.4,'11111222,11111222,11111222' 
TCOON,ioos:station:TCOON:005:1,2015-05-01T01:48:00Z,27.6346,-97.2370,0.0,2.5,149.0,3.8,'11111222,11111222,11111222' 
TCOON,ioos:station:TCOON:005:1,2015-05-01T01:54:00Z,27.6346,-97.2370,0.0,2.9,150.0,3.8,'11111222,11111222,11111222' 
TCOON,ioos:station:TCOON:005:1,2015-05-01T02:00:00Z,27.6346,-97.2370,0.0,2.5,146.0,3.7,'11111222,11111222,11111222' 
TCOON,ioos:station:TCOON:005:1,2015-05-01T02:06:00Z,27.6346,-97.2370,0.0,1.9,141.0,3.1,'11111222,11111222,11111222' 
TCOON,ioos:station:TCOON:005:1,2015-05-01T02:12:00Z,27.6346,-97.2370,0.0,1.9,141.0,3.1,'1111122,1111122,1111122' 
TCOON,ioos:station:TCOON:005:1,2015-05-01T02:18:00Z,27.6346,-97.2370,0.0,2.7,136.0,3.7,'11111222,11111222,11111222' 
TCOON,ioos:station:TCOON:005:1,2015-05-01T02:24:00Z,27.6346,-97.2370,0.0,2.5,134.0,3.8,'11111222,11111222,11111222' 
TCOON,ioos:station:TCOON:005:1,2015-05-01T02:30:00Z,27.6346,-97.2370,0.0,2.5,141.0,3.3,'11111222,11111222,11111222' 
TCOON,ioos:station:TCOON:005:1,2015-05-01T02:36:00Z,27.6346,-97.2370,0.0,2.4,138.0,3.3,'11111222,11111222,11111222' 
TCOON,ioos:station:TCOON:005:1,2015-05-01T02:42:00Z,27.6346,-97.2370,0.0,2.7,145.0,3.5,'11111222,11111222,11111222' 
TCOON,ioos:station:TCOON:005:1,2015-05-01T02:48:00Z,27.6346,-97.2370,0.0,2.7,145.0,3.7,'11111222,11111222,11111222' 
TCOON,ioos:station:TCOON:005:1,2015-05-01T02:54:00Z,27.6346,-97.2370,0.0,2.4,139.0,3.0,'11111222,11111222,11111222' 
TCOON,ioos:station:TCOON:005:1,2015-05-01T03:00:00Z,27.6346,-97.2370,0.0,2.6,141.0,3.4,'11111222,11111222,11111222' 
TCOON,ioos:station:TCOON:005:1,2015-05-01T03:06:00Z,27.6346,-97.2370,0.0,3.0,135.0,3.8,'11111222,11111222,11111222' 
TCOON,ioos:station:TCOON:005:1,2015-05-01T03:12:00Z,27.6346,-97.2370,0.0,3.0,135.0,3.8,'1111122,1111122,1111122' 
TCOON,ioos:station:TCOON:005:1,2015-05-01T03:18:00Z,27.6346,-97.2370,0.0,2.6,133.0,3.2,'11111222,11111222,11111222' 
TCOON,ioos:station:TCOON:005:1,2015-05-01T03:24:00Z,27.6346,-97.2370,0.0,2.7,141.0,3.7,'11111222,11111222,11111222' 
TCOON,ioos:station:TCOON:005:1,2015-05-01T03:30:00Z,27.6346,-97.2370,0.0,2.8,136.0,4.0,'11111222,11111222,11111222' 
TCOON,ioos:station:TCOON:005:1,2015-05-01T03:36:00Z,27.6346,-97.2370,0.0,2.6,140.0,3.8,'11111222,11111222,11111222' 
TCOON,ioos:station:TCOON:005:1,2015-05-01T03:42:00Z,27.6346,-97.2370,0.0,2.4,142.0,3.2,'11111222,11111222,11111222' 
TCOON,ioos:station:TCOON:005:1,2015-05-01T03:48:00Z,27.6346,-97.2370,0.0,2.8,140.0,3.4,'11111222,11111222,11111222' 
TCOON,ioos:station:TCOON:005:1,2015-05-01T03:54:00Z,27.6346,-97.2370,0.0,2.7,139.0,3.7,'11111222,11111222,11111222' 
TCOON,ioos:station:TCOON:005:1,2015-05-01T04:00:00Z,27.6346,-97.2370,0.0,2.9,140.0,3.8,'11111222,11111222,11111222' 
TCOON,ioos:station:TCOON:005:1,2015-05-01T04:06:00Z,27.6346,-97.2370,0.0,2.7,138.0,3.8,'11111222,11111222,11111222' 
TCOON,ioos:station:TCOON:005:1,2015-05-01T04:12:00Z,27.6346,-97.2370,0.0,2.8,143.0,3.8,'11111222,11111222,11111222' 
TCOON,ioos:station:TCOON:005:1,2015-05-01T04:18:00Z,27.6346,-97.2370,0.0,2.8,143.0,3.8,'1111122,1111122,1111122' 
TCOON,ioos:station:TCOON:005:1,2015-05-01T04:24:00Z,27.6346,-97.2370,0.0,2.7,139.0,3.9,'11111222,11111222,11111222' 
TCOON,ioos:station:TCOON:005:1,2015-05-01T04:30:00Z,27.6346,-97.2370,0.0,2.2,142.0,3.2,'11111222,11111222,11111222' 
TCOON,ioos:station:TCOON:005:1,2015-05-01T04:36:00Z,27.6346,-97.2370,0.0,2.6,140.0,3.4,'11111222,11111222,11111222' 
TCOON,ioos:station:TCOON:005:1,2015-05-01T04:42:00Z,27.6346,-97.2370,0.0,2.3,134.0,3.3,'11111222,11111222,11111222' 
TCOON,ioos:station:TCOON:005:1,2015-05-01T04:48:00Z,27.6346,-97.2370,0.0,2.5,134.0,3.4,'11111222,11111222,11111222' 
TCOON,ioos:station:TCOON:005:1,2015-05-01T04:54:00Z,27.6346,-97.2370,0.0,3.0,135.0,4.2,'11111222,11111222,11111222' 
TCOON,ioos:station:TCOON:005:1,2015-05-01T05:00:00Z,27.6346,-97.2370,0.0,2.9,130.0,3.5,'11111222,11111222,11111222' 
TCOON,ioos:station:TCOON:005:1,2015-05-01T05:06:00Z,27.6346,-97.2370,0.0,2.6,130.0,3.8,'11111222,11111222,11111222' 
TCOON,ioos:station:TCOON:005:1,2015-05-01T05:12:00Z,27.6346,-97.2370,0.0,3.3,127.0,4.0,'11111222,11111222,11111222' 
TCOON,ioos:station:TCOON:005:1,2015-05-01T05:18:00Z,27.6346,-97.2370,0.0,3.3,127.0,4.0,'1111122,1111122,1111122' 
TCOON,ioos:station:TCOON:005:1,2015-05-01T05:24:00Z,27.6346,-97.2370,0.0,3.1,129.0,3.7,'11111222,11111222,11111222' 
TCOON,ioos:station:TCOON:005:1,2015-05-01T05:30:00Z,27.6346,-97.2370,0.0,3.1,138.0,3.8,'11111222,11111222,11111222' 
TCOON,ioos:station:TCOON:005:1,2015-05-01T05:36:00Z,27.6346,-97.2370,0.0,3.2,140.0,3.9,'11111222,11111222,11111222' 
TCOON,ioos:station:TCOON:005:1,2015-05-01T05:42:00Z,27.6346,-97.2370,0.0,3.3,136.0,4.1,'11111222,11111222,11111222' 
TCOON,ioos:station:TCOON:005:1,2015-05-01T05:48:00Z,27.6346,-97.2370,0.0,2.8,136.0,3.7,'11111222,11111222,11111222' 
TCOON,ioos:station:TCOON:005:1,2015-05-01T05:54:00Z,27.6346,-97.2370,0.0,3.8,145.0,4.5,'11111222,11111222,11111222' 
TCOON,ioos:station:TCOON:005:1,2015-05-01T06:06:00Z,27.6346,-97.2370,0.0,2.4,151.0,3.7,'11111222,11111222,11111222' 
TCOON,ioos:station:TCOON:005:1,2015-05-01T06:18:00Z,27.6346,-97.2370,0.0,2.8,150.0,4.1,'1111122,1111122,1111122' 
TCOON,ioos:station:TCOON:005:1,2015-05-01T06:42:00Z,27.6346,-97.2370,0.0,2.9,146.0,4.1,'11111222,11111222,11111222' 
TCOON,ioos:station:TCOON:005:1,2015-05-01T07:00:00Z,27.6346,-97.2370,0.0,3.2,147.0,3.9,'11111222,11111222,11111222' 
TCOON,ioos:station:TCOON:005:1,2015-05-01T07:12:00Z,27.6346,-97.2370,0.0,3.2,153.0,4.0,'1111122,1111122,1111122' 
TCOON,ioos:station:TCOON:005:1,2015-05-01T07:30:00Z,27.6346,-97.2370,0.0,2.6,151.0,3.5,'11111222,11111222,11111222' 
TCOON,ioos:station:TCOON:005:1,2015-05-01T07:36:00Z,27.6346,-97.2370,0.0,2.5,151.0,3.6,'11111222,11111222,11111222' 
TCOON,ioos:station:TCOON:005:1,2015-05-01T07:42:00Z,27.6346,-97.2370,0.0,2.7,154.0,3.9,'11111222,11111222,11111222' 
TCOON,ioos:station:TCOON:005:1,2015-05-01T07:48:00Z,27.6346,-97.2370,0.0,2.4,156.0,3.4,'11111222,11111222,11111222' 
TCOON,ioos:station:TCOON:005:1,2015-05-01T07:54:00Z,27.6346,-97.2370,0.0,2.3,158.0,3.5,'11111222,11111222,11111222' 
TCOON,ioos:station:TCOON:005:1,2015-05-01T08:00:00Z,27.6346,-97.2370,0.0,2.4,156.0,3.1,'11111222,11111222,11111222' 
TCOON,ioos:station:TCOON:005:1,2015-05-01T08:06:00Z,27.6346,-97.2370,0.0,2.3,155.0,3.1,'11111222,11111222,11111222' 
TCOON,ioos:station:TCOON:005:1,2015-05-01T08:12:00Z,27.6346,-97.2370,0.0,2.7,150.0,3.4,'11111222,11111222,11111222' 
TCOON,ioos:station:TCOON:005:1,2015-05-01T08:18:00Z,27.6346,-97.2370,0.0,2.7,150.0,3.4,'1111122,1111122,1111122' 
TCOON,ioos:station:TCOON:005:1,2015-05-01T08:24:00Z,27.6346,-97.2370,0.0,2.5,159.0,3.2,'11111222,11111222,11111222' 
TCOON,ioos:station:TCOON:005:1,2015-05-01T08:30:00Z,27.6346,-97.2370,0.0,2.7,162.0,3.6,'11111222,11111222,11111222' 
TCOON,ioos:station:TCOON:005:1,2015-05-01T08:42:00Z,27.6346,-97.2370,0.0,2.4,167.0,3.3,'11111222,11111222,11111222' 
TCOON,ioos:station:TCOON:005:1,2015-05-01T08:48:00Z,27.6346,-97.2370,0.0,2.3,159.0,3.2,'11111222,11111222,11111222' 
TCOON,ioos:station:TCOON:005:1,2015-05-01T08:54:00Z,27.6346,-97.2370,0.0,2.7,161.0,3.4,'11111222,11111222,11111222' 
TCOON,ioos:station:TCOON:005:1,2015-05-01T09:00:00Z,27.6346,-97.2370,0.0,2.4,159.0,3.2,'11111222,11111222,11111222' 
TCOON,ioos:station:TCOON:005:1,2015-05-01T09:06:00Z,27.6346,-97.2370,0.0,2.6,159.0,3.5,'11111222,11111222,11111222' 
TCOON,ioos:station:TCOON:005:1,2015-05-01T09:12:00Z,27.6346,-97.2370,0.0,2.6,162.0,3.8,'11111222,11111222,11111222' 
TCOON,ioos:station:TCOON:005:1,2015-05-01T09:18:00Z,27.6346,-97.2370,0.0,2.6,162.0,3.8,'1111122,1111122,1111122' 
TCOON,ioos:station:TCOON:005:1,2015-05-01T09:24:00Z,27.6346,-97.2370,0.0,2.2,160.0,2.9,'11111222,11111222,11111222' 
TCOON,ioos:station:TCOON:005:1,2015-05-01T09:30:00Z,27.6346,-97.2370,0.0,2.5,160.0,3.1,'11111222,11111222,11111222' 
TCOON,ioos:station:TCOON:005:1,2015-05-01T09:36:00Z,27.6346,-97.2370,0.0,2.2,164.0,3.5,'11111222,11111222,11111222' 
TCOON,ioos:station:TCOON:005:1,2015-05-01T09:42:00Z,27.6346,-97.2370,0.0,1.8,161.0,2.4,'11111222,11111222,11111222' 
TCOON,ioos:station:TCOON:005:1,2015-05-01T09:48:00Z,27.6346,-97.2370,0.0,1.6,159.0,2.1,'11111222,11111222,11111222' 
TCOON,ioos:station:TCOON:005:1,2015-05-01T09:54:00Z,27.6346,-97.2370,0.0,1.6,163.0,2.2,'11111222,11111222,11111222' 
TCOON,ioos:station:TCOON:005:1,2015-05-01T10:00:00Z,27.6346,-97.2370,0.0,1.5,163.0,2.1,'11111222,11111222,11111222' 
TCOON,ioos:station:TCOON:005:1,2015-05-01T10:06:00Z,27.6346,-97.2370,0.0,1.8,162.0,2.2,'11111222,11111222,11111222' 
TCOON,ioos:station:TCOON:005:1,2015-05-01T10:12:00Z,27.6346,-97.2370,0.0,1.8,162.0,2.2,'1111122,1111122,1111122' 
TCOON,ioos:station:TCOON:005:1,2015-05-01T10:18:00Z,27.6346,-97.2370,0.0,1.5,167.0,1.8,'11111222,11111222,11111222' 
TCOON,ioos:station:TCOON:005:1,2015-05-01T10:24:00Z,27.6346,-97.2370,0.0,1.4,177.0,1.7,'11111222,11111222,11111222' 
TCOON,ioos:station:TCOON:005:1,2015-05-01T10:30:00Z,27.6346,-97.2370,0.0,1.4,177.0,1.7,'11111222,11111222,11111222' 
TCOON,ioos:station:TCOON:005:1,2015-05-01T10:36:00Z,27.6346,-97.2370,0.0,1.5,180.0,1.8,'11111222,11111222,11111222' 
TCOON,ioos:station:TCOON:005:1,2015-05-01T10:42:00Z,27.6346,-97.2370,0.0,1.6,179.0,2.0,'11111222,11111222,11111222' 
TCOON,ioos:station:TCOON:005:1,2015-05-01T10:48:00Z,27.6346,-97.2370,0.0,1.6,187.0,2.1,'11111222,11111222,11111222' 
TCOON,ioos:station:TCOON:005:1,2015-05-01T10:54:00Z,27.6346,-97.2370,0.0,1.5,184.0,1.9,'11111222,11111222,11111222' 
TCOON,ioos:station:TCOON:005:1,2015-05-01T11:00:00Z,27.6346,-97.2370,0.0,1.6,178.0,2.0,'11111222,11111222,11111222' 
TCOON,ioos:station:TCOON:005:1,2015-05-01T11:06:00Z,27.6346,-97.2370,0.0,1.8,187.0,2.1,'11111222,11111222,11111222' 
TCOON,ioos:station:TCOON:005:1,2015-05-01T11:12:00Z,27.6346,-97.2370,0.0,1.9,180.0,2.4,'11111222,11111222,11111222' 
TCOON,ioos:station:TCOON:005:1,2015-05-01T11:18:00Z,27.6346,-97.2370,0.0,1.9,180.0,2.4,'1111122,1111122,1111122' 
TCOON,ioos:station:TCOON:005:1,2015-05-01T11:24:00Z,27.6346,-97.2370,0.0,1.8,186.0,2.0,'11111222,11111222,11111222' 
TCOON,ioos:station:TCOON:005:1,2015-05-01T11:30:00Z,27.6346,-97.2370,0.0,2.0,193.0,2.4,'11111222,11111222,11111222' 
TCOON,ioos:station:TCOON:005:1,2015-05-01T11:36:00Z,27.6346,-97.2370,0.0,1.5,193.0,2.2,'11111222,11111222,11111222' 
TCOON,ioos:station:TCOON:005:1,2015-05-01T11:42:00Z,27.6346,-97.2370,0.0,1.5,180.0,1.8,'11111222,11111222,11111222' 
TCOON,ioos:station:TCOON:005:1,2015-05-01T11:48:00Z,27.6346,-97.2370,0.0,1.7,187.0,2.0,'11111222,11111222,11111222' 
TCOON,ioos:station:TCOON:005:1,2015-05-01T11:54:00Z,27.6346,-97.2370,0.0,1.5,172.0,1.9,'11111222,11111222,11111222' 
TCOON,ioos:station:TCOON:005:1,2015-05-01T12:00:00Z,27.6346,-97.2370,0.0,1.6,192.0,1.9,'11111222,11111222,11111222' 
TCOON,ioos:station:TCOON:005:1,2015-05-01T12:06:00Z,27.6346,-97.2370,0.0,1.6,190.0,1.9,'11111222,11111222,11111222' 
TCOON,ioos:station:TCOON:005:1,2015-05-01T12:12:00Z,27.6346,-97.2370,0.0,1.6,190.0,1.9,'1111122,1111122,1111122' 
TCOON,ioos:station:TCOON:005:1,2015-05-01T12:18:00Z,27.6346,-97.2370,0.0,1.7,238.0,2.2,'11111222,11111222,11111222' 
TCOON,ioos:station:TCOON:005:1,2015-05-01T12:24:00Z,27.6346,-97.2370,0.0,1.5,237.0,1.8,'11111222,11111222,11111222' 
TCOON,ioos:station:TCOON:005:1,2015-05-01T12:30:00Z,27.6346,-97.2370,0.0,1.6,239.0,1.9,'11111222,11111222,11111222' 
TCOON,ioos:station:TCOON:005:1,2015-05-01T12:36:00Z,27.6346,-97.2370,0.0,1.4,253.0,2.3,'11111222,11111222,11111222' 
TCOON,ioos:station:TCOON:005:1,2015-05-01T12:42:00Z,27.6346,-97.2370,0.0,1.3,251.0,1.7,'11111222,11111222,11111222' 
TCOON,ioos:station:TCOON:005:1,2015-05-01T12:48:00Z,27.6346,-97.2370,0.0,1.1,249.0,1.8,'11111222,11111222,11111222' 
TCOON,ioos:station:TCOON:005:1,2015-05-01T12:54:00Z,27.6346,-97.2370,0.0,1.3,254.0,1.8,'11111222,11111222,11111222' 
TCOON,ioos:station:TCOON:005:1,2015-05-01T13:00:00Z,27.6346,-97.2370,0.0,1.3,254.0,1.8,'11111222,11111222,11111222' 
TCOON,ioos:station:TCOON:005:1,2015-05-01T13:06:00Z,27.6346,-97.2370,0.0,1.4,251.0,1.8,'11111222,11111222,11111222' 
TCOON,ioos:station:TCOON:005:1,2015-05-01T13:12:00Z,27.6346,-97.2370,0.0,1.6,243.0,2.0,'11111222,11111222,11111222' 
TCOON,ioos:station:TCOON:005:1,2015-05-01T13:30:00Z,27.6346,-97.2370,0.0,1.7,251.0,2.1,'11111222,11111222,11111222' 
TCOON,ioos:station:TCOON:005:1,2015-05-01T13:36:00Z,27.6346,-97.2370,0.0,1.3,254.0,2.2,'11111222,11111222,11111222' 
TCOON,ioos:station:TCOON:005:1,2015-05-01T13:42:00Z,27.6346,-97.2370,0.0,1.4,251.0,1.9,'11111222,11111222,11111222' 
TCOON,ioos:station:TCOON:005:1,2015-05-01T13:48:00Z,27.6346,-97.2370,0.0,1.3,259.0,1.9,'11111222,11111222,11111222' 
TCOON,ioos:station:TCOON:005:1,2015-05-01T13:54:00Z,27.6346,-97.2370,0.0,0.9,267.0,1.6,'11111222,11111222,11111222' 
TCOON,ioos:station:TCOON:005:1,2015-05-01T14:00:00Z,27.6346,-97.2370,0.0,1.3,251.0,2.0,'11111222,11111222,11111222' 
TCOON,ioos:station:TCOON:005:1,2015-05-01T14:06:00Z,27.6346,-97.2370,0.0,1.5,252.0,2.0,'11111222,11111222,11111222' 
TCOON,ioos:station:TCOON:005:1,2015-05-01T14:12:00Z,27.6346,-97.2370,0.0,1.3,257.0,1.8,'11111222,11111222,11111222' 
TCOON,ioos:station:TCOON:005:1,2015-05-01T14:18:00Z,27.6346,-97.2370,0.0,1.3,257.0,1.8,'1111122,1111122,1111122' 
TCOON,ioos:station:TCOON:005:1,2015-05-01T14:30:00Z,27.6346,-97.2370,0.0,0.8,279.0,1.7,'11111222,11111222,11111222' 
TCOON,ioos:station:TCOON:005:1,2015-05-01T14:36:00Z,27.6346,-97.2370,0.0,1.0,261.0,1.5,'11111222,11111222,11111222' 
TCOON,ioos:station:TCOON:005:1,2015-05-01T14:42:00Z,27.6346,-97.2370,0.0,1.0,299.0,1.7,'11111222,11111222,11111222' 
TCOON,ioos:station:TCOON:005:1,2015-05-01T14:48:00Z,27.6346,-97.2370,0.0,1.3,288.0,1.7,'11111222,11111222,11111222' 
TCOON,ioos:station:TCOON:005:1,2015-05-01T14:54:00Z,27.6346,-97.2370,0.0,1.4,310.0,1.6,'11111222,11111222,11111222' 
TCOON,ioos:station:TCOON:005:1,2015-05-01T15:00:00Z,27.6346,-97.2370,0.0,0.4,271.0,1.4,'11111222,11111222,11111222' 
TCOON,ioos:station:TCOON:005:1,2015-05-01T15:06:00Z,27.6346,-97.2370,0.0,1.0,302.0,1.8,'11111222,11111222,11111222' 
TCOON,ioos:station:TCOON:005:1,2015-05-01T15:12:00Z,27.6346,-97.2370,0.0,1.1,299.0,1.7,'11111222,11111222,11111222' 
TCOON,ioos:station:TCOON:005:1,2015-05-01T15:18:00Z,27.6346,-97.2370,0.0,1.1,299.0,1.7,'1111122,1111122,1111122' 
TCOON,ioos:station:TCOON:005:1,2015-05-01T15:24:00Z,27.6346,-97.2370,0.0,1.6,306.0,1.9,'11111222,11111222,11111222' 
TCOON,ioos:station:TCOON:005:1,2015-05-01T15:30:00Z,27.6346,-97.2370,0.0,1.0,305.0,1.8,'11111222,11111222,11111222' 
TCOON,ioos:station:TCOON:005:1,2015-05-01T15:36:00Z,27.6346,-97.2370,0.0,1.3,314.0,1.6,'11111222,11111222,11111222' 
TCOON,ioos:station:TCOON:005:1,2015-05-01T15:42:00Z,27.6346,-97.2370,0.0,0.9,334.0,1.7,'11111222,11111222,11111222' 
TCOON,ioos:station:TCOON:005:1,2015-05-01T15:48:00Z,27.6346,-97.2370,0.0,0.5,266.0,1.7,'11111222,11111222,11111222' 
TCOON,ioos:station:TCOON:005:1,2015-05-01T15:54:00Z,27.6346,-97.2370,0.0,0.8,306.0,1.4,'11111222,11111222,11111222' 
TCOON,ioos:station:TCOON:005:1,2015-05-01T16:00:00Z,27.6346,-97.2370,0.0,0.6,81.0,0.8,'11111222,11111222,11111222' 
TCOON,ioos:station:TCOON:005:1,2015-05-01T16:06:00Z,27.6346,-97.2370,0.0,1.3,60.0,2.0,'11111222,11111222,11111222' 
TCOON,ioos:station:TCOON:005:1,2015-05-01T16:12:00Z,27.6346,-97.2370,0.0,1.8,97.0,2.5,'11111222,11111222,11111222' 
TCOON,ioos:station:TCOON:005:1,2015-05-01T16:18:00Z,27.6346,-97.2370,0.0,1.8,97.0,2.5,'1111122,1111122,1111122' 
TCOON,ioos:station:TCOON:005:1,2015-05-01T16:24:00Z,27.6346,-97.2370,0.0,2.0,115.0,2.7,'11111222,11111222,11111222' 
TCOON,ioos:station:TCOON:005:1,2015-05-01T16:30:00Z,27.6346,-97.2370,0.0,2.0,97.0,3.0,'11111222,11111222,11111222' 
TCOON,ioos:station:TCOON:005:1,2015-05-01T16:36:00Z,27.6346,-97.2370,0.0,2.5,94.0,4.2,'11111222,11111222,11111222' 
TCOON,ioos:station:TCOON:005:1,2015-05-01T16:42:00Z,27.6346,-97.2370,0.0,1.1,117.0,4.2,'11111222,11111222,11111222' 
TCOON,ioos:station:TCOON:005:1,2015-05-01T16:48:00Z,27.6346,-97.2370,0.0,2.1,105.0,3.9,'11111222,11111222,11111222' 
TCOON,ioos:station:TCOON:005:1,2015-05-01T16:54:00Z,27.6346,-97.2370,0.0,2.8,86.0,4.2,'11111222,11111222,11111222' 
TCOON,ioos:station:TCOON:005:1,2015-05-01T17:00:00Z,27.6346,-97.2370,0.0,3.0,118.0,4.3,'11111222,11111222,11111222' 
TCOON,ioos:station:TCOON:005:1,2015-05-01T17:06:00Z,27.6346,-97.2370,0.0,3.5,123.0,5.2,'11111222,11111222,11111222' 
TCOON,ioos:station:TCOON:005:1,2015-05-01T17:12:00Z,27.6346,-97.2370,0.0,3.3,104.0,5.9,'11111222,11111222,11111222' 
TCOON,ioos:station:TCOON:005:1,2015-05-01T17:18:00Z,27.6346,-97.2370,0.0,3.3,64.0,4.6,'11111222,11111222,11111222' 
TCOON,ioos:station:TCOON:005:1,2015-05-01T17:24:00Z,27.6346,-97.2370,0.0,3.3,64.0,4.6,'1111122,1111122,1111122' 
TCOON,ioos:station:TCOON:005:1,2015-05-01T17:30:00Z,27.6346,-97.2370,0.0,3.4,81.0,3.9,'11111222,11111222,11111222' 
TCOON,ioos:station:TCOON:005:1,2015-05-01T17:36:00Z,27.6346,-97.2370,0.0,1.9,92.0,3.1,'11111222,11111222,11111222' 
TCOON,ioos:station:TCOON:005:1,2015-05-01T17:42:00Z,27.6346,-97.2370,0.0,2.2,114.0,3.5,'11111222,11111222,11111222' 
TCOON,ioos:station:TCOON:005:1,2015-05-01T17:48:00Z,27.6346,-97.2370,0.0,3.1,110.0,4.0,'11111222,11111222,11111222' 
TCOON,ioos:station:TCOON:005:1,2015-05-01T17:54:00Z,27.6346,-97.2370,0.0,3.1,88.0,4.3,'11111222,11111222,11111222' 
TCOON,ioos:station:TCOON:005:1,2015-05-01T18:00:00Z,27.6346,-97.2370,0.0,2.8,105.0,3.7,'11111222,11111222,11111222' 
TCOON,ioos:station:TCOON:005:1,2015-05-01T18:06:00Z,27.6346,-97.2370,0.0,2.7,103.0,4.2,'11111222,11111222,11111222' 
TCOON,ioos:station:TCOON:005:1,2015-05-01T18:12:00Z,27.6346,-97.2370,0.0,3.6,78.0,5.7,'11111222,11111222,11111222' 
TCOON,ioos:station:TCOON:005:1,2015-05-01T18:18:00Z,27.6346,-97.2370,0.0,3.6,78.0,5.7,'1111122,1111122,1111122' 
TCOON,ioos:station:TCOON:005:1,2015-05-01T18:24:00Z,27.6346,-97.2370,0.0,3.1,63.0,4.2,'11111222,11111222,11111222' 
TCOON,ioos:station:TCOON:005:1,2015-05-01T18:30:00Z,27.6346,-97.2370,0.0,2.6,81.0,4.2,'11111222,11111222,11111222' 
TCOON,ioos:station:TCOON:005:1,2015-05-01T18:36:00Z,27.6346,-97.2370,0.0,2.8,71.0,4.2,'11111222,11111222,11111222' 
TCOON,ioos:station:TCOON:005:1,2015-05-01T18:42:00Z,27.6346,-97.2370,0.0,2.4,93.0,3.9,'11111222,11111222,11111222' 
TCOON,ioos:station:TCOON:005:1,2015-05-01T18:48:00Z,27.6346,-97.2370,0.0,3.0,98.0,5.2,'11111222,11111222,11111222' 
TCOON,ioos:station:TCOON:005:1,2015-05-01T18:54:00Z,27.6346,-97.2370,0.0,4.1,121.0,5.1,'11111222,11111222,11111222' 
TCOON,ioos:station:TCOON:005:1,2015-05-01T19:00:00Z,27.6346,-97.2370,0.0,3.2,117.0,4.7,'11111222,11111222,11111222' 
TCOON,ioos:station:TCOON:005:1,2015-05-01T19:06:00Z,27.6346,-97.2370,0.0,3.7,88.0,5.3,'11111222,11111222,11111222' 
TCOON,ioos:station:TCOON:005:1,2015-05-01T19:12:00Z,27.6346,-97.2370,0.0,3.3,82.0,4.0,'11111222,11111222,11111222' 
TCOON,ioos:station:TCOON:005:1,2015-05-01T19:18:00Z,27.6346,-97.2370,0.0,3.3,82.0,4.0,'1111122,1111122,1111122' 
TCOON,ioos:station:TCOON:005:1,2015-05-01T19:24:00Z,27.6346,-97.2370,0.0,3.5,77.0,4.6,'11111222,11111222,11111222' 
TCOON,ioos:station:TCOON:005:1,2015-05-01T19:30:00Z,27.6346,-97.2370,0.0,1.8,106.0,5.2,'11111222,11111222,11111222' 
TCOON,ioos:station:TCOON:005:1,2015-05-01T19:36:00Z,27.6346,-97.2370,0.0,2.6,115.0,5.4,'11111222,11111222,11111222' 
TCOON,ioos:station:TCOON:005:1,2015-05-01T19:42:00Z,27.6346,-97.2370,0.0,4.5,82.0,5.5,'11111222,11111222,11111222' 
TCOON,ioos:station:TCOON:005:1,2015-05-01T19:48:00Z,27.6346,-97.2370,0.0,3.2,80.0,6.2,'11111222,11111222,11111222' 
TCOON,ioos:station:TCOON:005:1,2015-05-01T19:54:00Z,27.6346,-97.2370,0.0,3.7,112.0,4.9,'11111222,11111222,11111222' 
TCOON,ioos:station:TCOON:005:1,2015-05-01T20:00:00Z,27.6346,-97.2370,0.0,4.3,72.0,5.6,'11111222,11111222,11111222' 
TCOON,ioos:station:TCOON:005:1,2015-05-01T20:06:00Z,27.6346,-97.2370,0.0,2.7,105.0,4.8,'11111222,11111222,11111222' 
TCOON,ioos:station:TCOON:005:1,2015-05-01T20:12:00Z,27.6346,-97.2370,0.0,2.4,102.0,4.3,'11111222,11111222,11111222' 
TCOON,ioos:station:TCOON:005:1,2015-05-01T20:18:00Z,27.6346,-97.2370,0.0,3.5,86.0,5.3,'1111122,1111122,1111122' 
TCOON,ioos:station:TCOON:005:1,2015-05-01T20:24:00Z,27.6346,-97.2370,0.0,3.5,86.0,5.3,'11111222,11111222,11111222' 
TCOON,ioos:station:TCOON:005:1,2015-05-01T20:30:00Z,27.6346,-97.2370,0.0,2.2,104.0,5.0,'11111222,11111222,11111222' 
TCOON,ioos:station:TCOON:005:1,2015-05-01T20:36:00Z,27.6346,-97.2370,0.0,3.1,133.0,4.8,'11111222,11111222,11111222' 
TCOON,ioos:station:TCOON:005:1,2015-05-01T20:42:00Z,27.6346,-97.2370,0.0,4.5,81.0,5.6,'11111222,11111222,11111222' 
TCOON,ioos:station:TCOON:005:1,2015-05-01T20:48:00Z,27.6346,-97.2370,0.0,4.5,104.0,5.6,'11111222,11111222,11111222' 
TCOON,ioos:station:TCOON:005:1,2015-05-01T20:54:00Z,27.6346,-97.2370,0.0,3.6,108.0,5.5,'11111222,11111222,11111222' 
TCOON,ioos:station:TCOON:005:1,2015-05-01T21:00:00Z,27.6346,-97.2370,0.0,4.1,109.0,5.5,'11111222,11111222,11111222' 
TCOON,ioos:station:TCOON:005:1,2015-05-01T21:06:00Z,27.6346,-97.2370,0.0,4.3,114.0,5.0,'11111222,11111222,11111222' 
TCOON,ioos:station:TCOON:005:1,2015-05-01T21:12:00Z,27.6346,-97.2370,0.0,3.1,98.0,6.3,'11111222,11111222,11111222' 
TCOON,ioos:station:TCOON:005:1,2015-05-01T21:18:00Z,27.6346,-97.2370,0.0,3.1,98.0,6.3,'1111122,1111122,1111122' 
TCOON,ioos:station:TCOON:005:1,2015-05-01T21:24:00Z,27.6346,-97.2370,0.0,3.2,119.0,5.3,'11111222,11111222,11111222' 
TCOON,ioos:station:TCOON:005:1,2015-05-01T21:30:00Z,27.6346,-97.2370,0.0,4.2,116.0,5.3,'11111222,11111222,11111222' 
TCOON,ioos:station:TCOON:005:1,2015-05-01T21:36:00Z,27.6346,-97.2370,0.0,3.1,102.0,5.0,'11111222,11111222,11111222' 
TCOON,ioos:station:TCOON:005:1,2015-05-01T21:42:00Z,27.6346,-97.2370,0.0,3.6,75.0,4.6,'11111222,11111222,11111222' 
TCOON,ioos:station:TCOON:005:1,2015-05-01T21:48:00Z,27.6346,-97.2370,0.0,2.8,84.0,5.4,'11111222,11111222,11111222' 